Regional Weather Roundup
Issued by NWS

Home | Current Version | Previous Version | Graphics & Text | Print | Product List | Glossary On
Versions: 1 2 3 4 5 6 7 8 9 10 11 12 13 14 15 16 17 18 19 20 21 22 23 24 25 26 27 28 29 30 31 32 33 34 35 36 37 38 39 40 41 42 43 44 45 46 47 48 49 50
000
ASUS43 KOAX 040502
RWRNE

WEATHER ROUNDUP FOR NEBRASKA
NATIONAL WEATHER SERVICE OMAHA NE
1100 PM CST SAT DEC 03 2016

NOTES: SATELLITE DATA IS BEING USED TO AUGMENT CLOUD COVER ABOVE
       12000 FEET.
       "FAIR" INDICATES FEW OR NO CLOUDS BELOW 12,000 FEET WITH NO
       SIGNIFICANT WEATHER AND/OR OBSTRUCTIONS TO VISIBILITY.

  * THESE STATIONS DO NOT REPORT WEATHER SUCH AS RAIN...SNOW OR FOG.

NEZ001>004-019>022-054>056-040600-
NEBRASKA PANHANDLE

CITY           SKY/WX    TMP DP  RH WIND       PRES   REMARKS
SCOTTSBLUFF    PTCLDY    23  13  65 NW7       30.00F WCI  15
ALLIANCE       PTCLDY    22  13  68 W8        29.97F WCI  12
CHADRON        CLOUDY    26  17  68 W8        29.98R WCI  18
KIMBALL        CLOUDY    32  18  57 W14       30.01F WCI  22
SIDNEY         CLEAR     25  14  63 W9        30.01F WCI  15
$$

NEZ057>060-069>072-079>082-040600-
SOUTHWEST NEBRASKA

CITY           SKY/WX    TMP DP  RH WIND       PRES   REMARKS
NORTH PLATTE   CLOUDY    28  27  96 SW5       30.00S WCI  23
IMPERIAL       PTCLDY    27  14  58 W12       30.02R WCI  17
LEXINGTON      CLOUDY    33  32  95 W8        30.02F FOG     WCI  26
MCCOOK         PTCLDY    31  30  96 SW8       30.02F FOG     WCI  23
OGALLALA       CLOUDY    32  19  58 W5        30.00S WCI  27
$$

NEZ005>010-023>029-035>040-094-040600-
NORTH CENTRAL NEBRASKA

CITY           SKY/WX    TMP DP  RH WIND       PRES   REMARKS
VALENTINE      PTCLDY    25  18  74 W8        29.94S WCI  16
AINSWORTH      PTCLDY    27  19  72 W5        29.94F WCI  22
BROKEN BOW     CLOUDY    34  31  88 SW12      29.98F WCI  25
O`NEILL        CLOUDY    34  32  92 SW10      29.97S WCI  26
ORD            CLOUDY    33  29  85 S7        29.99F WCI  27
$$

NEZ041-046>049-061>064-073>077-083>087-040600-
SOUTH CENTRAL NEBRASKA

CITY           SKY/WX    TMP DP  RH WIND       PRES   REMARKS
GRAND ISLAND   CLOUDY    32  32 100 SW12      30.04F WCI  23
AURORA         CLOUDY    32  32 100 SW9       30.04S WCI  24
HASTINGS       CLOUDY    32  31  96 SW8       30.05S FOG     WCI  25
HEBRON         MIX PCPN  32  32  99 CALM      30.05F
HOLDREGE       CLOUDY    32  31  96 SW8       30.02S FOG     WCI  24
KEARNEY *      CLOUDY    32  28  86 S8        30.03S WCI  25
YORK           CLOUDY    32  32 100 CALM      30.04F FOG
$$

NEZ011>018-030>034-042>045-040600-
NORTHEAST NEBRASKA

CITY           SKY/WX    TMP DP  RH WIND       PRES   REMARKS
NORFOLK        CLOUDY    33  30  88 S10       30.02F WCI  25
ALBION         CLOUDY    32  32  99 S9        30.01F FOG     WCI  25
BLAIR          LGT SNOW  33  33  98 SE3       30.06S
FREMONT        CLOUDY    32  32 100 SE3       30.06F FOG
TEKAMAH        CLOUDY    32  31  96 SE8       30.07F FOG     WCI  25
WAYNE          CLOUDY    33  33  97 S13       30.02F FOG     WCI  24
$$

NEZ050>053-065>068-078-088>093-040600-
SOUTHEAST NEBRASKA

CITY           SKY/WX    TMP DP  RH WIND       PRES   REMARKS
LINCOLN        LGT SNOW  32  32 100 CALM      30.07F FOG
OMAHA EPPLEY   LGT SNOW  33  29  85 CALM      30.08F VSB 1
BEATRICE       LGT RAIN  34  34  99 SW6       30.07R WCI  29
FALLS CITY     LGT RAIN  39  37  92 S9        30.07F WCI  33
NEBRASKA CITY  RAIN      37  37 100 S8        30.08R WCI  30
PLATTSMOUTH    LGT RAIN  35  33  92 S7        30.06S WCI  29
$$

NEZ044-045-051>053-067-040600-
OMAHA AREA

CITY           SKY/WX    TMP DP  RH WIND       PRES   REMARKS
OMAHA EPPLEY   LGT SNOW  33  29  85 CALM      30.08F VSB 1
BLAIR          LGT SNOW  33  33  98 SE3       30.06S
FREMONT        CLOUDY    32  32 100 SE3       30.06F FOG
MILLARD        LGT RAIN  33  32  96 CALM      30.08S
OFFUTT AFB     LGT RAIN  33  33 100 CALM      30.07F FOG
PLATTSMOUTH    LGT RAIN  35  33  92 S7        30.06S WCI  29
WAHOO          CLOUDY    32  32  99 SE3       30.06F FOG
$$




USA.gov is the U.S. government's official web portal to all federal, state and local government web resources and services.